This is the latest recevied weather packets stored in our database for station/object K5OBH. If no packets are shown the sender has not sent any weather packets the latest 10 day(s).
| Time | Temp. | Humidity | Pressure | Rain* | Wind** | Luminosity | Snow |
|---|---|---|---|---|---|---|---|
| 1778089550 | 15° C | 57% | 1017.1 hPa | 0 mm | - | 793 W/m² | - |
| 1778089245 | 16.67° C | 56% | 1016.9 hPa | 0 mm | - | 816 W/m² | - |
| 1778088944 | 15° C | 59% | 1016.9 hPa | 0 mm | - | 234 W/m² | - |
| 1778088640 | 15° C | 62% | 1017.3 hPa | 0 mm | - | 836 W/m² | - |
| 1778088338 | 14.44° C | 62% | 1017.1 hPa | 0 mm | - | 784 W/m² | - |
| 1778088034 | 14.44° C | 61% | 1017.3 hPa | 0 mm | - | 794 W/m² | - |
| 1778087731 | 15° C | 59% | 1017.3 hPa | 0 mm | - | 623 W/m² | - |
| 1778087428 | 14.44° C | 60% | 1017.2 hPa | 0 mm | - | 678 W/m² | - |
| 1778087126 | 13.89° C | 62% | 1017 hPa | 0 mm | - | 781 W/m² | - |
| 1778086819 | 15° C | 61% | 1017.1 hPa | 0 mm | - | 712 W/m² | - |
| 1778086516 | 13.89° C | 62% | 1017.1 hPa | 0 mm | - | 748 W/m² | - |
| 1778086212 | 13.89° C | 63% | 1017 hPa | 0 mm | - | 697 W/m² | - |
| 1778085908 | 13.89° C | 64% | 1017.2 hPa | 0 mm | - | 241 W/m² | - |
| 1778085606 | 13.33° C | 65% | 1017.2 hPa | 0 mm | - | 560 W/m² | - |
| 1778085301 | 13.33° C | 64% | 1017.4 hPa | 0 mm | - | 711 W/m² | - |
| 1778084996 | 12.78° C | 67% | 1017.3 hPa | 0 mm | - | 403 W/m² | - |
| 1778084694 | 12.78° C | 67% | 1017.4 hPa | 0 mm | - | 414 W/m² | - |
| 1778084391 | 12.78° C | 67% | 1017.1 hPa | 0 mm | - | 379 W/m² | - |
| 1778084089 | 12.78° C | 66% | 1017.4 hPa | 0 mm | - | 360 W/m² | - |
| 1778083781 | 12.78° C | 67% | 1017.3 hPa | 0 mm | - | 262 W/m² | - |
| 1778083478 | 12.22° C | 69% | 1017.5 hPa | 0 mm | - | 205 W/m² | - |
| 1778083175 | 12.22° C | 69% | 1017.2 hPa | 0 mm | - | 232 W/m² | - |
| 1778082873 | 11.67° C | 70% | 1017.3 hPa | 0 mm | - | 354 W/m² | - |
| 1778081765 | 11.11° C | 73% | 1017.3 hPa | 0 mm | - | 204 W/m² | - |
| 1778081462 | 11.11° C | 73% | 1017.3 hPa | 0 mm | - | 210 W/m² | - |
* Rain latest hour (hover to see other rain measurements)
** Current wind speed in m/s (hover to see current wind gust speed)